Regional Weather Roundup
Issued by NWS State College, PA

Home | Current Version | Previous Version | Text Only | Print | Product List | Glossary On
Versions: 1 2 3 4 5 6 7 8 9 10 11 12 13 14 15 16 17 18 19 20 21 22 23 24 25 26 27 28 29 30 31 32 33 34 35 36 37 38 39 40 41 42 43 44 45 46 47 48 49 50
000
ASUS41 KCTP 250010
RWRCTP

REGIONAL WEATHER ROUNDUP
NATIONAL WEATHER SERVICE STATE COLLEGE PA
700 PM EST FRI NOV 24 2017

Note: "fair" indicates few or no clouds below 12,000 feet with no
significant weather and/or obstructions to visibility.

* = STATION THAT DOES NOT REPORT PRECIPITATION /E.G. RAIN...SNOW...ETC/
    THUNDER OR FOG.

PAZ002>004-007>009-013>016-020>023-029>032-250100-
WESTERN PENNSYLVANIA

CITY           SKY/WX    TMP DP  RH WIND       PRES   REMARKS
ERIE           CLEAR     49  24  37 S21G28    29.72F
MEADVILLE      CLEAR     45  23  42 S9        29.77S
FRANKLIN*      CLEAR     42  22  44 S10       29.79S
NEW CASTLE     FAIR      46  23  40 S6        29.81S
BEAVER COUNTY  NOT AVBL
BUTLER*        CLEAR     46  20  35 S7        29.82S
PITTSBURGH INT PTCLDY    47  20  34 S3        29.82S
PITTSBURGH     CLEAR     47  17  30 S8        29.82F
INDIANA*       CLEAR     36  23  60 CALM      29.87S
LATROBE        CLEAR     37  21  52 CALM      29.85S
WASHINGTON CO* CLEAR     43  21  41 S3        29.85F
$$

PAZ004>006-010>012-017>019-024>028-033>037-041-042-045-046-049>053-250100-
CENTRAL PENNSYLVANIA

CITY           SKY/WX    TMP DP  RH WIND       PRES   REMARKS
BRADFORD       CLEAR     43  21  41 S7        29.78F
DUBOIS         CLEAR     44  17  33 S6        29.81F
CLEARFIELD     CLEAR     38  22  52 N3        29.84S
JOHNSTOWN      CLEAR     45  18  34 S6        29.84S
ALTOONA        CLEAR     46  24  42 S8        29.87S
STATE COLLEGE  CLEAR     45  19  36 S6        29.87S
WILLIAMSPORT   CLEAR     49  24  37 S12G20    29.87F
SELINSGROVE    CLEAR     39  26  59 CALM      29.91F
FT INDIANTOWN  CLEAR     35  25  67 CALM      29.93F
CAPITAL CITY   CLEAR     40  26  57 SE3       29.93F
HARRISBURG     CLEAR     38  28  67 E5        29.93S
YORK           CLEAR     35  27  72 SE6       29.93S
$$

PAZ038>040-043-044-047-048-054-055-060>062-067>071-250100-
EASTERN PENNSYLVANIA

CITY           SKY/WX    TMP DP  RH WIND       PRES   REMARKS
SCRANTON       CLEAR     45  21  38 VRB5      29.90R
MOUNT POCONO   CLEAR     37  19  48 SW7       29.90S
ALLENTOWN      CLEAR     44  20  38 S5        29.95S
QUAKERTOWN*    CLEAR     39  25  56 S3        29.96S
READING        CLEAR     43  27  53 S6        29.95S
LANCASTER      CLEAR     42  26  53 S5        29.95S
COATESVILLE    CLEAR     41  27  56 CALM      29.97S
POTTSTOWN      CLEAR     40  25  55 S3        29.98R
BLUE BELL      CLEAR     34  28  80 CALM      29.98F
DOYLESTOWN     CLEAR     40  24  53 VRB3      29.96S
WILLOW GROVE   NOT AVBL
NORTH PHILA    CLEAR     46  26  45 CALM      29.99S
PHILADELPHIA   CLEAR     46  30  53 S5        29.98F
$$




USA.gov is the U.S. government's official web portal to all federal, state and local government web resources and services.